MOLNIYA 2-9 (7276 NORAD) Tracking and Keplerian Element Data

This shows tracking and keplerian element data for the satellite.

Feedback or suggestion? Click here.




ElementValue
Catalog7276
NameMOLNIYA 2-9
Epoch Orbit27277
Epoch Day33.64737652
Epoch Year2025
RAAN95.8133
Inclination64.3286
Eccentricity0.653646
Argument of Perigee268.1855
Mean Anonmoly21.6774
Mean Motion2.45097327
Decay Rate3.5E-07
L11 07276U 74026A 25033.64737652 .00000035 00000+0 00000+0 0 9990
L22 07276 64.3286 95.8133 6536460 268.1855 21.6774 2.45097327272778



Live tracking and technical data element details for MOLNIYA 2-9 (NORAD 7276). MOLNIYA 2-9 can be tracked NOW for your location showing map with azimuth and elevation plus other details from your city location.







IsCatalogInMostPopularTable: catalog: 7276, numindb: 486
Update: records affected: 1



GetName: 7276 MOLNIYA 2-9

Hit Count: updated at: Thu, 15 May 2025 20:10:55 GMT